Location: Salisbury
(38.3600°N, 75.6000°W)
Time: 17:30:15
(UTC-05:00)

Daily predictions for brighter satellites

Satellite Brightness Start Highest point End
(mag) Time Altitude Azimuth Time Altitude Azimuth Time Altitude Azimuth
Cosmos 1656 3.8 17:02:42 10° S 17:08:10 58° ESE 17:13:34 10° NNE
Cosmos 2084 4.4 17:06:05 10° S 17:09:49 30° ESE 17:13:22 10° NE
ISS -2.6 17:08:39 10° WNW 17:11:50 47° SW 17:15:00 10° SSE
NOSS 3-4 (A) 3.9 17:06:57 10° S 17:12:49 46° ESE 17:18:50 10° NE
NOSS 3-4 (C) 3.9 17:07:03 10° S 17:12:54 45° ESE 17:18:55 10° NE
Cosmos 2297 Rocket 2.2 17:09:14 10° NNW 17:14:51 60° ENE 17:20:25 10° SE
DELTA 2 R/B (1) 3.6 17:09:56 10° W 17:15:31 79° N 17:21:07 10° E
Cosmos 1666 2.7 17:14:23 10° N 17:18:08 86° W 17:21:52 10° S
SJ-12 4.4 17:15:20 10° S 17:19:25 67° WSW 17:23:31 10° NNW
Cosmos 1536 Rocket 3.5 17:15:56 10° S 17:20:14 65° E 17:24:32 10° NNE
CZ-2C R/B 3.7 17:15:18 10° S 17:20:18 48° W 17:25:16 10° NNW
CZ-2C R/B 4.3 17:16:34 10° NNE 17:21:03 42° E 17:25:32 10° S
CENTAUR R/B 4.0 17:19:41 10° NNW 17:26:03 26° NE 17:32:47 10° E
Cosmos 1484 Rocket 2.8 17:24:25 10° SSE 17:28:25 82° ENE 17:32:27 10° N
SJ-7 4.3 17:25:19 10° SSE 17:29:18 89° E 17:33:18 10° NNW
CSL-04 Debris 4.2 17:31:34 10° SSE 17:36:57 88° WSW 17:42:23 10° NNW
SMAP 3.1 17:32:44 10° SSE 17:37:22 90° SSE 17:42:03 10° NNW
SKYMED 2 4.2 17:33:43 10° NNE 17:37:42 35° E 17:41:40 10° SSE
Atlas Centaur 2 4.2 17:33:08 10° WSW 17:37:54 24° SSW 17:41:52 10° SSE
METEOR-M 4.3 17:35:29 10° SE 17:40:35 48° ENE 17:45:43 10° N
FENGYUN 3A 4.3 17:39:29 10° SE 17:44:11 32° ENE 17:48:52 10° N
Meteor 2-4 Rocket 3.9 17:39:22 10° SSW 17:44:46 74° W 17:50:08 10° N
SL-16 R/B 3.8 17:44:21 10° SE 17:47:09 14° E 17:47:41 14° E
Lacrosse 5 rocket 3.3 17:46:56 10° SE 17:48:55 13° ESE 17:49:38 13° ESE
IRS-1A Rocket 4.2 17:44:33 10° SSE 17:50:06 72° ENE 17:55:36 10° N
Cosmos 2322 Rocket 3.7 17:47:51 10° SE 17:50:48 15° E 17:51:06 15° E
CSL-04 Rocket 4.4 17:45:29 10° S 17:50:49 59° WSW 17:56:16 10° NNW
Cosmos 2278 4.4 17:46:16 10° SW 17:51:48 55° WNW 17:57:25 10° NNE
ALOS 2.8 17:49:12 10° SE 17:53:27 36° ENE 17:57:43 10° N
Ariane Rocket 3.5 17:48:46 10° S 17:53:46 62° WSW 17:58:47 10° NNW
Meteor 1-28 Rocket 4.0 17:51:55 10° N 17:55:35 52° WNW 17:59:16 10° SSW
SPOT 3 Rocket 3.9 17:52:53 10° SE 17:57:42 41° ENE 18:02:32 10° N
Cosmos 2360 4.4 17:52:30 10° S 17:58:02 53° ESE 18:02:41 15° NE
Cosmos 494 Rocket 4.3 17:54:06 10° N 17:59:05 42° ENE 18:04:03 10° SE
Cosmos 2266 Rocket 4.1 17:53:18 10° N 17:59:24 78° W 18:05:36 10° S
USA 116 3.6 17:58:05 10° N 18:01:09 59° WNW 18:04:12 10° SSW
DELTA 2 R/B (2) 4.3 17:59:50 10° WSW 18:02:23 58° SSE 18:03:39 31° E
Cosmos 1697 Rocket 2.9 17:58:53 10° SSW 18:04:30 71° WNW 18:10:09 10° NNE
RESURS DK-1 2.6 18:01:30 10° S 18:05:27 45° ESE 18:07:11 28° NE
Cosmos 1515 3.7 18:02:30 10° S 18:06:17 83° W 18:10:06 10° N
Cosmos 1892 Rocket 4.4 18:02:32 10° SSE 18:06:21 28° E 18:06:56 27° ENE
YAOGAN 1 2.6 18:02:22 10° SSE 18:06:42 84° W 18:11:02 10° NNW
Cosmos 2251 Rocket 4.1 18:03:24 10° N 18:08:11 34° ENE 18:12:55 10° SE
Cosmos 1184 Rocket 3.3 18:05:45 10° SSE 18:08:40 36° E 18:08:40 36° E
EO 1 Del DPAF 3.1 18:10:43 18° NNE 18:13:28 73° ESE 18:17:17 10° S
MTI 4.0 18:11:44 15° N 18:14:20 69° WNW 18:17:33 10° SSW
ERS-2 2.0 18:13:25 10° SSE 18:17:03 69° ENE 18:20:42 10° N
S3M 4.2 18:16:35 10° SSE 18:22:20 44° E 18:26:25 19° NNE
SJ 16-02 3.6 18:20:02 10° WSW 18:23:27 22° WNW 18:26:54 10° NNW
COSMO-SKYMED 1 3.0 18:21:30 10° N 18:25:48 63° WNW 18:30:04 10° SSW
CZ-4 R/B 3.3 18:22:41 10° SSW 18:26:06 30° W 18:29:36 10° NW
PSLV R/B 3.4 18:23:50 10° WNW 18:26:40 55° NNW 18:26:40 55° NNW
Cosmos 1244 Rocket 4.4 18:30:48 10° N 18:36:58 88° W 18:43:10 10° S
NOSS 3-2 (C) 4.3 18:30:12 10° NW 18:37:52 72° WSW 18:46:07 10° SSE
Cosmos 1025 Rocket 4.4 18:39:48 10° SSW 18:43:47 37° WNW 18:47:47 10° N
FengYun 1-2 T 4.2 18:39:56 10° SSE 18:45:26 60° ENE 18:51:00 10° N
Cosmos 1980 Rocket 2.8 18:40:56 10° SW 18:46:29 55° WNW 18:50:26 19° N
USA 215 4.0 18:40:56 10° SSE 18:47:15 52° SW 18:53:36 10° NW
Cosmos 1066 Rocket 4.2 18:46:29 10° SSW 18:52:00 78° W 18:55:35 22° N
Cosmos 1553 Rocket 4.0 18:48:11 10° S 18:54:36 87° W 19:01:00 10° N
SL-08 R/B 4.3 18:49:04 10° N 18:55:21 84° E 19:01:32 10° S
DELTA 2 R/B (1) 3.8 18:56:28 10° W 19:01:57 62° SSW 19:02:55 53° SSE
Meteor 1-22 Rocket 4.1 18:59:08 10° N 19:05:02 78° E 19:10:40 10° SSE
Cosmos 1745 Rocket 3.9 19:03:51 10° N 19:10:06 88° E 19:16:24 10° S
CENTAUR R/B 3.0 19:09:41 10° NNW 19:17:45 89° WSW 19:22:18 32° SSE
Cosmos 2344 3.4 19:13:42 10° SSW 19:21:20 74° ESE 19:22:05 69° ENE
Lacrosse 5 rocket 3.3 19:23:22 10° SW 19:25:21 27° WSW 19:25:21 27° WSW
SL-16 R/B 2.6 19:24:54 10° SSW 19:29:37 60° WSW 19:29:37 60° WSW
Cosmos 2263 Rocket 4.2 19:26:51 10° NNW 19:27:54 16° NNW 19:27:54 16° NNW
Cosmos 2322 Rocket 2.8 19:28:35 10° SSW 19:32:59 53° WSW 19:32:59 53° WSW
